[[{"header":{"parameterUnit":"m.s-1","parameterCategory":2,"la1":30.2991,"la2":30.254,"lo1":-89.0895,"lo2":-89.0444,"dy":0.0017,"dx":0.0017,"nx":28,"ny":28,"refTime":"2024-12-09T03:00:00:Z","depth":"0","parameterNumber":2,"parameterNumberName":"U-component_of_CURRENTS"},"data":[0,0,0,0,0,0,0,0,0,0,0,0,0,0,0,0,0,0,0,0,0,0,0,0,0,0,0,0,0,0,0,0,0,0,0,0,0,0,0,0,0,0,0,0,0,0,0,0,0,0,0,0,0,0,0,0,0,0,0.2564,0.2564,0,0.2575,0.2575,0.2576,0.2571,0.257,0.2569,0.2569,0.2597,0.2599,0.26,0,0,0,0,0,0,0,0,0,0,0,0,0,0.259,0.259,0.2564,0.2564,0.2564,0.2575,0.2575,0.2576,0.2571,0.257,0.2569,0.2569,0.2597,0.2599,0.26,0,0,0,0,0,0,0,0,0,0,0,0,0,0.259,0.259,0.2564,0.2561,0.256,0.2575,0.2575,0.2576,0.2571,0.257,0.2569,0.2568,0.2597,0.2598,0.26,0.2629,0,0,0.2606,0.2607,0,0,0,0,0,0,0,0,0.259,0.259,0.2561,0.2561,0.256,0.2568,0.2595,0.2593,0.2571,0.257,0.2569,0.2568,0.2588,0.259,0.2598,0.263,0.2631,0.2606,0.2607,0.2608,0.2609,0,0,0,0,0,0,0,0.259,0.259,0.2572,0.2561,0.2561,0.2575,0.2574,0.2595,0.2586,0.257,0.2569,0.2565,0.2588,0.2597,0.2599,0.2632,0.2606,0.2608,0.2609,0.261,0.2738,0.274,0,0,0,0,0,0,0.2581,0.2589,0.2571,0.2572,0.257,0.2575,0.2574,0.2569,0.2585,0.2586,0.2566,0.2565,0.2594,0.2597,0.26,0.266,0.2608,0.261,0.2611,0.2736,0.2738,0.2741,0,0,0,0,0,0,0.2582,0.2579,0.2571,0.2579,0.2578,0.2575,0.2569,0.2569,0.2577,0.2582,0.2583,0.2573,0.2593,0.2597,0.264,0.2659,0.2611,0.2613,0.2733,0.2737,0.274,0.2763,0,0,0,0,0,0,0.2582,0.258,0.2586,0.2578,0.2577,0.26,0.257,0.257,0.2575,0.2574,0.2589,0.259,0.2593,0.2637,0.2642,0.2661,0.2614,0.273,0.2735,0.2739,0.2759,0.2766,0.2773,0,0,0,0,0,0.2583,0.2612,0.2587,0.2585,0.2582,0.2601,0.2604,0.2601,0.2576,0.26,0.2609,0.259,0.2667,0.2641,0.2646,0.2666,0.2728,0.2733,0.2738,0.2756,0.2765,0.2773,0,0,0,0,0,0,0.2623,0.2613,0.2586,0.2605,0.2604,0.26,0.2622,0.2604,0.2628,0.2625,0.2618,0.2623,0.2674,0.2674,0.2645,0.272,0.2695,0.2701,0.2707,0.2715,0.2722,0.271,0.2616,0,0,0,0,0,0.2631,0.2651,0.263,0.2645,0.2643,0.2626,0.2633,0.2626,0.2636,0.2644,0.2648,0.2665,0.27,0.2709,0.2744,0.2777,0.2793,0.2796,0.2803,0.2808,0.2806,0.2868,0.2879,0.2758,0.2758,0.2757,0,0,0.2649,0.2645,0.2655,0.2655,0.2649,0.2654,0.2631,0.2648,0.2651,0.2645,0.2667,0.2696,0.2721,0.2768,0.2789,0.2765,0.2854,0.2815,0.2819,0.2813,0.2874,0.2886,0.2896,0.2761,0.276,0.276,0,0,0.2689,0.2687,0.2707,0.2709,0.2702,0.2695,0.2696,0.2691,0.2693,0.2718,0.2724,0.2765,0.2796,0.2824,0.2839,0.2906,0.29,0.2915,0.2922,0.2983,0.2993,0.3001,0.3039,0.3051,0.2904,0.2904,0.2904,0,0.271,0.2713,0.272,0.2727,0.2724,0.2707,0.2711,0.2721,0.2731,0.2737,0.2732,0.2799,0.2824,0.2876,0.2903,0.2919,0.2944,0.2881,0.2989,0.2998,0.3007,0.3043,0.3056,0.2905,0.2905,0.2905,0.2905,0,0.274,0.2747,0.2762,0.2756,0.2766,0.2777,0.2769,0.2783,0.2772,0.2773,0.2824,0.2865,0.2897,0.292,0.2929,0.3002,0.2999,0.3,0.2959,0.302,0.3055,0.3068,0.2908,0.2907,0.2907,0.2906,0,0,0.2771,0.278,0.2781,0.2769,0.2776,0.2779,0.28,0.2806,0.2806,0.2837,0.2849,0.2925,0.2935,0.2956,0.2979,0.3028,0.3118,0.3035,0.3037,0.3055,0.3241,0.3191,0.32,0.3137,0.3139,0.3141,0.3241,0,0.278,0.2791,0.2798,0.2801,0.2798,0.2798,0.2811,0.2823,0.2834,0.2854,0.2898,0.293,0.295,0.2966,0.3026,0.3102,0.3153,0.309,0.3194,0.3196,0.3132,0.3214,0.308,0.3153,0.3253,0.3255,0.3257,0,0.279,0.2794,0.2797,0.2795,0.2792,0.2797,0.28,0.2812,0.2848,0.286,0.2902,0.2929,0.301,0.3013,0.3162,0.312,0.3185,0.3236,0.3241,0.3192,0.3171,0.3112,0.3173,0.2982,0.3276,0.3275,0.3273,0,0.278,0.2789,0.2785,0.2785,0.2789,0.279,0.279,0.2814,0.282,0.2863,0.2873,0.2962,0.3,0.3109,0.3211,0.3197,0.3365,0.3357,0.337,0.3367,0.327,0.3253,0.3142,0.3465,0.3465,0.3464,0.3464,0,0.2778,0.2775,0.2776,0.2773,0.2764,0.2772,0.277,0.2785,0.281,0.2818,0.2873,0.2898,0.3029,0.3125,0.3226,0.3338,0.3383,0.3388,0.3399,0.3275,0.3258,0.3101,0.3041,0.3468,0.3467,0.3467,0.3466,0,0.2766,0.2771,0.2765,0.2763,0.2759,0.2752,0.2747,0.2743,0.2772,0.2787,0.2798,0.2875,0.299,0.3115,0.3286,0.334,0.3345,0.3485,0.3316,0.3305,0.3118,0.3066,0.2953,0.2891,0.3515,0.3515,0.3514,0,0.2761,0.2755,0.2748,0.2735,0.2732,0.2719,0.2705,0.2724,0.272,0.2766,0.2771,0.2868,0.2923,0.3142,0.3267,0.3424,0.3307,0.3366,0.3317,0.3094,0.3047,0.2933,0.2882,0.3204,0.3201,0.3199,0.3197,0,0.2739,0.2735,0.2722,0.27,0.2682,0.2663,0.2647,0.2641,0.2659,0.2673,0.2698,0.2746,0.2919,0.2992,0.3175,0.327,0.3145,0.332,0.3142,0.2839,0.2658,0.2606,0.3135,0.3176,0.3178,0.3179,0.318,0.3181,0.2711,0.2694,0.2669,0.2642,0.2623,0.2593,0.2557,0.2547,0.2536,0.2524,0.2609,0.2646,0.2723,0.2957,0.3006,0.2943,0.3014,0.2866,0.2839,0.2756,0.2626,0.3096,0.3113,0.3115,0.3116,0.3117,0.3119,0,0.2659,0.2633,0.2606,0.2563,0.2518,0.2534,0.2497,0.2449,0.2406,0.2443,0.2453,0.2479,0.25,0.2557,0.2546,0.2448,0.2398,0.237,0.2153,0.2149,0.2602,0.2512,0.2334,0.2334,0.2334,0.2334,0.2335,0.2335,0.2628,0.2574,0.2555,0.2463,0.2432,0.2354,0.2325,0.2273,0.2279,0.2217,0.2208,0.2228,0.2195,0.206,0.1904,0.1906,0.1748,0.1699,0.1716,0.1969,0.201,0.205,0.1945,0.1652,0.1651,0.117,0.1166,0.1162]},{"header":{"parameterUnit":"m.s-1","parameterCategory":2,"la1":30.2991,"la2":30.254,"lo1":-89.0895,"lo2":-89.0444,"dy":0.0017,"dx":0.0017,"nx":28,"ny":28,"refTime":"2024-12-09T03:00:00:Z","depth":"0","parameterNumber":3,"parameterNumberName":"V-component_of_CURRENTS"},"data":[0,0,0,0,0,0,0,0,0,0,0,0,0,0,0,0,0,0,0,0,0,0,0,0,0,0,0,0,0,0,0,0,0,0,0,0,0,0,0,0,0,0,0,0,0,0,0,0,0,0,0,0,0,0,0,0,0,0,0.067,0.067,0,0.071,0.0711,0.0712,0.0743,0.0743,0.0742,0.0742,0.0754,0.0755,0.0755,0,0,0,0,0,0,0,0,0,0,0,0,0,0.0709,0.0708,0.067,0.067,0.067,0.071,0.0711,0.0712,0.0743,0.0743,0.0742,0.0742,0.0754,0.0755,0.0755,0,0,0,0,0,0,0,0,0,0,0,0,0,0.0719,0.0708,0.067,0.0687,0.0689,0.071,0.0711,0.0712,0.0743,0.0743,0.0742,0.0742,0.0754,0.0755,0.0755,0.0762,0,0,0.0757,0.0757,0,0,0,0,0,0,0,0,0.0718,0.0718,0.0684,0.0686,0.0688,0.0718,0.0729,0.0726,0.0743,0.0727,0.0742,0.0742,0.0737,0.0739,0.0753,0.0762,0.0763,0.0757,0.0758,0.0758,0.0758,0,0,0,0,0,0,0,0.0717,0.0717,0.069,0.0685,0.0687,0.0723,0.0724,0.073,0.0735,0.0728,0.0729,0.0727,0.0738,0.0753,0.0753,0.0763,0.0757,0.0758,0.0758,0.0758,0.0804,0.0805,0,0,0,0,0,0,0.0699,0.0715,0.0689,0.0691,0.0698,0.0722,0.0723,0.0712,0.0735,0.0738,0.0727,0.0728,0.0752,0.0753,0.0754,0.0792,0.0758,0.0758,0.0759,0.0803,0.0804,0.0805,0,0,0,0,0,0,0.07,0.0696,0.0687,0.0702,0.0703,0.072,0.0708,0.0712,0.0727,0.0734,0.0737,0.0736,0.0751,0.0753,0.0783,0.0791,0.0759,0.0759,0.0802,0.0803,0.0805,0.085,0,0,0,0,0,0,0.0701,0.0696,0.069,0.07,0.0701,0.0711,0.0708,0.0713,0.0723,0.0725,0.0742,0.0744,0.0751,0.0782,0.0784,0.0792,0.076,0.0801,0.0803,0.0804,0.0847,0.0852,0.0857,0,0,0,0,0,0.0702,0.0704,0.069,0.0687,0.0689,0.0711,0.0717,0.0732,0.0724,0.0742,0.076,0.0743,0.0792,0.0784,0.0785,0.0794,0.08,0.0802,0.0804,0.0845,0.0851,0.0857,0,0,0,0,0,0,0.0709,0.0707,0.0692,0.0688,0.0698,0.0715,0.0732,0.0731,0.0759,0.076,0.0763,0.0767,0.0797,0.0789,0.0779,0.0811,0.0789,0.0791,0.082,0.0825,0.083,0.0837,0.076,0,0,0,0,0,0.0705,0.0714,0.0707,0.0705,0.0708,0.0715,0.0725,0.0732,0.0751,0.0764,0.0775,0.0786,0.0805,0.0811,0.0829,0.0845,0.0834,0.0848,0.0853,0.0857,0.0863,0.0868,0.0874,0.0811,0.0811,0.0811,0,0,0.0707,0.0706,0.0709,0.0709,0.0717,0.0735,0.0723,0.0742,0.0763,0.0759,0.0799,0.0808,0.0816,0.0848,0.0857,0.0841,0.0868,0.0859,0.0863,0.0867,0.087,0.0876,0.0882,0.0813,0.0812,0.0812,0,0,0.0731,0.0711,0.0732,0.074,0.0749,0.0755,0.0756,0.0773,0.0788,0.082,0.0826,0.0848,0.0867,0.0886,0.0892,0.093,0.0899,0.0921,0.0945,0.095,0.0955,0.0959,0.0947,0.095,0.0916,0.0916,0.0917,0,0.0733,0.0741,0.0743,0.0764,0.0768,0.0761,0.0779,0.0801,0.0829,0.0843,0.0838,0.0884,0.0889,0.0927,0.0944,0.0941,0.093,0.0923,0.0956,0.096,0.0964,0.095,0.0953,0.0919,0.0919,0.0918,0.0918,0,0.0766,0.0776,0.0789,0.0807,0.0821,0.0833,0.0846,0.0869,0.0872,0.0888,0.0928,0.0946,0.0968,0.097,0.097,0.0998,0.0977,0.0967,0.0941,0.0973,0.0956,0.0958,0.0922,0.0921,0.0921,0.092,0,0,0.076,0.0803,0.0807,0.0814,0.0836,0.0846,0.0886,0.0913,0.0934,0.0963,0.0994,0.1029,0.1027,0.1035,0.1034,0.1037,0.1052,0.1012,0.1011,0.0999,0.1048,0.1019,0.1018,0.1045,0.1046,0.1046,0.1022,0,0.0778,0.0816,0.0839,0.087,0.0879,0.0893,0.0928,0.0957,0.098,0.1016,0.1034,0.1065,0.1054,0.1062,0.1069,0.1071,0.106,0.1058,0.1019,0.1018,0.0989,0.1021,0.1025,0.1003,0.1024,0.1024,0.1024,0,0.0794,0.0815,0.0845,0.0882,0.0888,0.0911,0.0944,0.0978,0.1032,0.1053,0.1089,0.1103,0.1137,0.1108,0.1121,0.1119,0.1083,0.1069,0.1068,0.1028,0.0994,0.0976,0.1005,0.0881,0.1027,0.1027,0.1027,0,0.0764,0.0817,0.0833,0.0843,0.0889,0.0908,0.0933,0.0984,0.1018,0.1075,0.1104,0.1143,0.1164,0.115,0.1139,0.1124,0.1137,0.111,0.1044,0.104,0.103,0.1025,0.0937,0.109,0.109,0.1091,0.1091,0,0.0755,0.0771,0.0819,0.0822,0.0853,0.0887,0.0927,0.0966,0.1025,0.1076,0.1115,0.1165,0.1174,0.1189,0.1156,0.1123,0.1149,0.1056,0.104,0.1045,0.1041,0.0921,0.0866,0.109,0.109,0.109,0.109,0,0.072,0.0748,0.0776,0.0823,0.0839,0.0858,0.0923,0.0957,0.1013,0.1082,0.1102,0.1183,0.1218,0.1213,0.1199,0.1143,0.106,0.1077,0.1076,0.106,0.087,0.082,0.0771,0.0747,0.0998,0.0998,0.0997,0,0.0709,0.0716,0.0768,0.0787,0.0809,0.0846,0.0878,0.0942,0.0988,0.1101,0.1137,0.1198,0.1266,0.1249,0.1182,0.1121,0.1038,0.1031,0.1002,0.0865,0.0797,0.0791,0.0775,0.1002,0.1001,0.1001,0.1,0,0.0689,0.0705,0.0727,0.0765,0.0798,0.0846,0.0898,0.0937,0.1025,0.1092,0.1199,0.1267,0.1279,0.1265,0.1175,0.1114,0.0967,0.1016,0.0887,0.0804,0.0784,0.0751,0.0994,0.0996,0.0997,0.0997,0.0997,0.0997,0.0677,0.0688,0.0716,0.0751,0.0793,0.0852,0.0891,0.0963,0.1047,0.1177,0.1243,0.1382,0.1333,0.1244,0.1123,0.0885,0.0919,0.0794,0.0747,0.0756,0.0726,0.0948,0.0923,0.0923,0.0923,0.0923,0.0923,0,0.0661,0.0673,0.0703,0.0752,0.0793,0.0824,0.091,0.0968,0.107,0.1233,0.1344,0.1455,0.131,0.1165,0.0858,0.0653,0.0626,0.054,0.0524,0.0523,0.0724,0.0713,0.0628,0.0628,0.0628,0.0628,0.0628,0.0629,0.0652,0.0663,0.0678,0.0737,0.0776,0.0839,0.0891,0.0996,0.1134,0.1352,0.1505,0.1639,0.1518,0.0884,0.0465,0.0388,0.0273,0.0262,0.0203,0.0301,0.0321,0.034,0.0315,0.0148,0.0147,0.005,0.0049,0.0047]}],[{"header":{"parameterUnit":"m.s-1","parameterCategory":2,"la1":30.2991,"la2":30.254,"lo1":-89.0895,"lo2":-89.0444,"dy":0.0017,"dx":0.0017,"nx":28,"ny":28,"refTime":"2024-12-09T03:00:00:Z","depth":"2","parameterNumber":2,"parameterNumberName":"U-component_of_CURRENTS"},"data":[0,0,0,0,0,0,0,0,0,0,0,0,0,0,0,0,0,0,0,0,0,0,0,0,0,0,0,0,0,0,0,0,0,0,0,0,0,0,0,0,0,0,0,0,0,0,0,0,0,0,0,0,0,0,0,0,0,0,0.0223,0.0223,0,0.0233,0.0233,0.0234,0.024,0.024,0.024,0.024,0.024,0.024,0.024,0,0,0,0,0,0,0,0,0,0,0,0,0,0.0204,0.0205,0.0223,0.0223,0.0223,0.0233,0.0233,0.0234,0.024,0.024,0.024,0.024,0.024,0.024,0.024,0,0,0,0,0,0,0,0,0,0,0,0,0,0.0213,0.0205,0.0223,0.0227,0.0228,0.0233,0.0233,0.0234,0.024,0.024,0.024,0.024,0.024,0.024,0.024,0.0239,0,0,0.024,0.024,0,0,0,0,0,0,0,0,0.0213,0.0214,0.0226,0.0227,0.0228,0.0235,0.0227,0.0235,0.024,0.0235,0.024,0.024,0.0237,0.0238,0.024,0.0239,0.0239,0.024,0.024,0.024,0.024,0,0,0,0,0,0,0,0.0212,0.0214,0.0227,0.0227,0.0227,0.0228,0.0229,0.0229,0.0236,0.0236,0.0236,0.0237,0.0238,0.024,0.024,0.0239,0.024,0.024,0.024,0.024,0.0282,0.0283,0,0,0,0,0,0,0.0211,0.0213,0.0227,0.0227,0.022,0.0228,0.0229,0.0233,0.0236,0.0237,0.0237,0.0237,0.024,0.024,0.024,0.029,0.024,0.024,0.024,0.0281,0.0282,0.0283,0,0,0,0,0,0,0.0211,0.0212,0.0226,0.022,0.0222,0.0228,0.0232,0.0233,0.0244,0.0237,0.0238,0.0248,0.024,0.024,0.0257,0.0288,0.024,0.024,0.028,0.0281,0.0283,0.0358,0,0,0,0,0,0,0.021,0.0212,0.0217,0.022,0.0222,0.024,0.0232,0.0233,0.0244,0.0245,0.0247,0.0247,0.024,0.0258,0.0257,0.0287,0.024,0.0278,0.028,0.0282,0.0354,0.0362,0.0368,0,0,0,0,0,0.0209,0.0218,0.0217,0.0219,0.0228,0.0241,0.0242,0.0246,0.0245,0.0255,0.0261,0.0247,0.0271,0.0259,0.0258,0.0289,0.0277,0.028,0.0282,0.035,0.036,0.0368,0,0,0,0,0,0,0.0212,0.0219,0.0219,0.0228,0.0238,0.0242,0.0251,0.0253,0.0265,0.0267,0.026,0.0261,0.0286,0.0275,0.0262,0.0306,0.0272,0.0274,0.0324,0.0333,0.034,0.0366,0.024,0,0,0,0,0,0.0214,0.0223,0.0229,0.0238,0.0244,0.0249,0.0255,0.0259,0.0268,0.0273,0.0278,0.0283,0.0295,0.0304,0.0306,0.0331,0.035,0.035,0.0357,0.0363,0.0384,0.0434,0.0449,0.0292,0.0292,0.0292,0,0,0.0217,0.0223,0.0227,0.024,0.0247,0.0267,0.0254,0.0268,0.0292,0.0271,0.0307,0.0306,0.0305,0.0336,0.0346,0.0333,0.0421,0.0367,0.0372,0.039,0.0439,0.0454,0.0468,0.0293,0.0293,0.0293,0,0,0.023,0.0234,0.0247,0.026,0.0274,0.0282,0.0289,0.0303,0.0317,0.0344,0.034,0.0364,0.0373,0.0392,0.0398,0.0446,0.0454,0.0443,0.0509,0.0558,0.0572,0.0584,0.0644,0.0662,0.0452,0.0452,0.0453,0,0.0232,0.0252,0.0254,0.0274,0.0292,0.0293,0.0319,0.0334,0.0355,0.0385,0.0363,0.0417,0.0404,0.0467,0.0482,0.0466,0.05,0.0476,0.057,0.0582,0.0594,0.0652,0.067,0.0456,0.0456,0.0456,0.0455,0,0.0256,0.0277,0.0288,0.0317,0.0338,0.0359,0.0382,0.0413,0.0426,0.0448,0.0508,0.0503,0.0545,0.0538,0.0524,0.0606,0.0607,0.057,0.0552,0.0615,0.0672,0.0689,0.0462,0.0461,0.0459,0.0458,0,0,0.025,0.0295,0.0301,0.0327,0.0363,0.0384,0.0438,0.0493,0.0545,0.0566,0.0642,0.0656,0.067,0.0678,0.067,0.0707,0.0806,0.0681,0.0682,0.075,0.094,0.0834,0.0842,0.0792,0.0795,0.0797,0.0953,0,0.0269,0.0315,0.0337,0.0393,0.0421,0.0457,0.0509,0.0563,0.0606,0.0679,0.0705,0.0757,0.0719,0.0744,0.0783,0.08,0.0854,0.0769,0.0862,0.0865,0.0769,0.0859,0.0737,0.0855,0.097,0.0973,0.0975,0,0.0288,0.0318,0.0371,0.0444,0.0461,0.0499,0.0599,0.0646,0.0747,0.0784,0.086,0.0879,0.0961,0.0894,0.1001,0.0954,0.0964,0.0966,0.0972,0.086,0.079,0.0807,0.0882,0.1004,0.1002,0.1,0.0998,0,0.0285,0.0347,0.0392,0.0414,0.0491,0.0538,0.0588,0.0686,0.0739,0.0863,0.0918,0.1015,0.1065,0.1108,0.1117,0.1077,0.1218,0.1158,0.1082,0.1076,0.0983,0.0961,0.1237,0.1237,0.1236,0.1236,0.1236,0,0.03,0.0339,0.0396,0.0422,0.0487,0.0548,0.0633,0.0704,0.081,0.0884,0.0972,0.1042,0.1118,0.1194,0.1192,0.1206,0.1289,0.1127,0.1115,0.1003,0.0982,0.1105,0.1087,0.1242,0.1241,0.1239,0.1238,0,0.0298,0.0331,0.0384,0.0461,0.0486,0.0537,0.0634,0.0695,0.0806,0.091,0.0954,0.1098,0.1195,0.1259,0.1338,0.1287,0.1308,0.1284,0.1152,0.1119,0.1123,0.1108,0.1241,0.1238,0.1236,0.1235,0.1233,0,0.0305,0.0329,0.0395,0.0415,0.045,0.0522,0.0568,0.0678,0.0739,0.0923,0.0968,0.1116,0.1158,0.1264,0.1224,0.1237,0.1301,0.1144,0.1015,0.1151,0.1128,0.1115,0.1103,0.0948,0.0944,0.0941,0.0939,0,0.0314,0.0332,0.0365,0.0398,0.044,0.0486,0.0562,0.0601,0.0736,0.0822,0.0938,0.0989,0.1071,0.1038,0.1059,0.1032,0.1128,0.1077,0.1306,0.0928,0.0877,0.0852,0.085,0.0913,0.0915,0.0917,0.0919,0.092,0.0312,0.0324,0.035,0.0382,0.0415,0.0442,0.0466,0.0536,0.0606,0.072,0.0804,0.0859,0.0883,0.0822,0.0833,0.0865,0.0888,0.0875,0.0885,0.0897,0.0797,0.0741,0.0736,0.0738,0.0739,0.0741,0.0742,0,0.0306,0.0314,0.0332,0.0355,0.0361,0.0403,0.0452,0.0462,0.0502,0.0609,0.0658,0.0583,0.057,0.0675,0.0631,0.0595,0.059,0.0634,0.0644,0.0667,0.0688,0.0579,0.046,0.046,0.0461,0.0461,0,0,0.0301,0.0302,0.0302,0.0293,0.0309,0.0315,0.0329,0.0349,0.0405,0.041,0.0457,0.0491,0.057,0.0493,0.0477,0.0497,0.0586,0.0473,0.0681,0.0711,0.0734,0.0789,0.064,0,0,0,0,0]},{"header":{"parameterUnit":"m.s-1","parameterCategory":2,"la1":30.2991,"la2":30.254,"lo1":-89.0895,"lo2":-89.0444,"dy":0.0017,"dx":0.0017,"nx":28,"ny":28,"refTime":"2024-12-09T03:00:00:Z","depth":"2","parameterNumber":3,"parameterNumberName":"V-component_of_CURRENTS"},"data":[0,0,0,0,0,0,0,0,0,0,0,0,0,0,0,0,0,0,0,0,0,0,0,0,0,0,0,0,0,0,0,0,0,0,0,0,0,0,0,0,0,0,0,0,0,0,0,0,0,0,0,0,0,0,0,0,0,0,0.0045,0.0045,0,-0.0002,-0.0003,-0.0004,-0.0062,-0.0063,-0.0064,-0.0065,-0.0165,-0.0167,-0.0168,0,0,0,0,0,0,0,0,0,0,0,0,0,0.0093,0.0092,0.0046,0.0045,0.0044,-0.0002,-0.0003,-0.0004,-0.0062,-0.0063,-0.0065,-0.0066,-0.0164,-0.0166,-0.0169,0,0,0,0,0,0,0,0,0,0,0,0,0,0.0061,0.0092,0.0046,0.0009,0.0006,-0.0002,-0.0003,-0.0004,-0.0062,-0.0063,-0.0065,-0.0066,-0.0164,-0.0166,-0.0169,-0.0157,0,0,-0.0177,-0.0178,0,0,0,0,0,0,0,0,0.0063,0.006,0.0015,0.0012,0.0008,-0.0028,-0.0023,-0.0058,-0.0062,-0.0036,-0.0065,-0.0067,-0.0123,-0.0129,-0.0134,-0.0162,-0.0166,-0.0177,-0.0179,-0.018,-0.0181,0,0,0,0,0,0,0,0.0065,0.0061,0.0027,0.0015,0.001,-0.0002,-0.0008,-0.003,-0.0072,-0.0039,-0.0043,-0.0048,-0.0126,-0.0131,-0.0137,-0.0168,-0.0177,-0.0179,-0.0181,-0.0182,-0.0234,-0.0234,0,0,0,0,0,0,0.0072,0.0064,0.0028,0.0025,0.0032,-0.0002,-0.0009,-0.0015,-0.0071,-0.008,-0.0047,-0.0051,-0.0126,-0.0134,-0.0141,-0.015,-0.018,-0.0182,-0.0184,-0.0234,-0.0234,-0.0234,0,0,0,0,0,0,0.0074,0.007,0.003,0.0043,0.0037,-0.0002,-0.0008,-0.0015,-0.0032,-0.0076,-0.0087,-0.0057,-0.0127,-0.0137,-0.0169,-0.0154,-0.0184,-0.0186,-0.0235,-0.0234,-0.0234,-0.0157,0,0,0,0,0,0,0.0075,0.007,0.0072,0.0044,0.0037,0.0032,-0.0007,-0.0015,-0.0032,-0.0038,-0.0088,-0.0099,-0.0129,-0.0165,-0.0172,-0.0158,-0.0188,-0.0235,-0.0235,-0.0234,-0.016,-0.0154,-0.0149,0,0,0,0,0,0.0077,0.0088,0.0072,0.0068,0.0039,0.0033,0.0029,-0.0004,-0.0031,-0.0026,-0.0072,-0.0098,-0.0167,-0.0167,-0.0175,-0.0162,-0.0235,-0.0235,-0.0234,-0.0162,-0.0155,-0.0149,0,0,0,0,0,0,0.0112,0.0083,0.0064,0.0066,0.0052,0.0023,0.0024,-0.0001,-0.0032,-0.0045,-0.0095,-0.0107,-0.0131,-0.0158,-0.0156,-0.0177,-0.0205,-0.0206,-0.0147,-0.0141,-0.0136,-0.0105,-0.019,0,0,0,0,0,0.0121,0.012,0.0091,0.0095,0.0088,0.0055,0.0047,0.0024,-0.0007,-0.0022,-0.0059,-0.0101,-0.0131,-0.0146,-0.0178,-0.0184,-0.0208,-0.0183,-0.0177,-0.0173,-0.0154,-0.0191,-0.0187,-0.0232,-0.0232,-0.0232,0,0,0.0136,0.012,0.012,0.0103,0.0087,0.009,0.0047,0.0039,0.004,-0.0027,-0.0041,-0.0085,-0.0132,-0.0144,-0.0156,-0.0166,-0.0171,-0.0172,-0.0167,-0.0151,-0.019,-0.0185,-0.0181,-0.0232,-0.0232,-0.0232,0,0,0.0171,0.0151,0.0161,0.0154,0.0133,0.0117,0.0114,0.0083,0.0066,0.0049,-0.0003,-0.0036,-0.008,-0.0105,-0.0125,-0.0107,-0.0146,-0.0123,-0.0063,-0.0099,-0.0095,-0.0092,-0.0105,-0.0104,-0.0114,-0.0114,-0.0114,0,0.0187,0.0195,0.0167,0.0175,0.0176,0.0131,0.0146,0.0131,0.0092,0.0088,0.0053,-0.0011,-0.0055,-0.0065,-0.0063,-0.0092,-0.0115,-0.0081,-0.009,-0.0088,-0.0086,-0.0101,-0.01,-0.011,-0.0111,-0.0111,-0.0111,0,0.0226,0.0233,0.0241,0.0236,0.0237,0.0243,0.0219,0.0213,0.0182,0.0162,0.0138,0.0076,0.0041,0.0019,-0.0017,-0.0021,-0.0043,-0.0083,-0.0101,-0.0077,-0.0094,-0.0095,-0.0105,-0.0106,-0.0107,-0.0108,0,0,0.0253,0.0265,0.0266,0.0283,0.0268,0.0277,0.0285,0.0286,0.03,0.025,0.0263,0.0198,0.0159,0.0134,0.008,0.0052,0.004,-0.0002,-0.0006,-0.0003,-0.0025,-0.0031,-0.0033,-0.0009,-0.0009,-0.0009,-0.0037,0,0.0287,0.0326,0.032,0.0363,0.0382,0.0359,0.0379,0.0374,0.0356,0.0359,0.0295,0.0281,0.0205,0.0189,0.0147,0.0065,0.0039,0.0053,-0.0058,-0.006,-0.0061,-0.0034,-0.0035,-0.0061,-0.0039,-0.0039,-0.0039,0,0.0319,0.0345,0.0393,0.0436,0.0443,0.0465,0.0495,0.0507,0.0498,0.0483,0.0452,0.0398,0.0354,0.028,0.0168,0.0177,0.009,0.0024,0.002,-0.001,-0.0068,-0.0086,-0.0064,-0.0041,-0.0041,-0.0041,-0.0041,0,0.0353,0.0396,0.0443,0.0453,0.049,0.0516,0.0537,0.0546,0.0572,0.0566,0.0581,0.0505,0.0478,0.0356,0.0215,0.0187,0.0095,0.0033,-0.0048,-0.0049,-0.0082,-0.0086,-0.004,-0.004,-0.004,-0.004,-0.004,0,0.0391,0.0427,0.0468,0.0493,0.0559,0.057,0.0636,0.0644,0.0671,0.0719,0.065,0.0666,0.0493,0.0414,0.0265,0.0122,0.0128,-0.0019,-0.0055,-0.0055,-0.0055,-0.007,-0.0073,-0.0041,-0.0041,-0.004,-0.004,0,0.0417,0.044,0.0497,0.0552,0.0576,0.0624,0.0698,0.075,0.0769,0.083,0.0835,0.0788,0.0684,0.0518,0.0335,0.0203,0.0055,-0.0,0.0029,-0.0003,-0.0078,-0.0077,-0.0094,-0.0095,-0.0095,-0.0095,-0.0096,0,0.0436,0.0467,0.0537,0.0578,0.0607,0.068,0.0739,0.0787,0.0848,0.0907,0.0945,0.0882,0.0806,0.056,0.034,0.0104,0.007,-0.003,-0.0091,-0.0049,-0.0083,-0.0081,-0.008,-0.0104,-0.0104,-0.0104,-0.0104,0,0.0469,0.0487,0.053,0.0615,0.0686,0.0776,0.0866,0.0928,0.0998,0.1038,0.1086,0.1027,0.0812,0.0555,0.0261,0.0116,0.0004,-0.0042,-0.0008,-0.0086,-0.006,-0.0092,-0.009,-0.0106,-0.0106,-0.0106,-0.0106,-0.0106,0.0481,0.0515,0.057,0.0654,0.0739,0.0862,0.0944,0.1033,0.1122,0.1156,0.1104,0.0971,0.072,0.0287,0.0125,0.0002,-0.0021,-0.0121,-0.012,-0.0119,-0.0111,-0.0087,-0.0136,-0.0136,-0.0136,-0.0136,-0.0136,0,0.0489,0.0534,0.0611,0.0718,0.0821,0.0868,0.1021,0.1097,0.1192,0.1146,0.1083,0.072,0.0445,0.0249,0.0049,-0.0113,-0.0111,-0.014,-0.013,-0.0128,-0.0126,-0.0118,-0.0145,-0.0145,-0.0145,-0.0145,0,0,0.0493,0.0552,0.0599,0.0764,0.0849,0.0994,0.1082,0.1184,0.1193,0.1075,0.0928,0.0658,0.0425,0.0226,0.0044,-0.0016,-0.0017,-0.0019,-0.0003,0.0035,0.0039,-0.0116,-0.0102,0,0,0,0,0]}],[{"header":{"parameterUnit":"m.s-1","parameterCategory":2,"la1":30.2991,"la2":30.254,"lo1":-89.0895,"lo2":-89.0444,"dy":0.0017,"dx":0.0017,"nx":28,"ny":28,"refTime":"2024-12-09T03:00:00:Z","depth":"4","parameterNumber":2,"parameterNumberName":"U-component_of_CURRENTS"},"data":[0,0,0,0,0,0,0,0,0,0,0,0,0,0,0,0,0,0,0,0,0,0,0,0,0,0,0,0,0,0,0,0,0,0,0,0,0,0,0,0,0,0,0,0,0,0,0,0,0,0,0,0,0,0,0,0,0,0,0.0016,0.0016,0,0.0027,0.0027,0.0027,0.0063,0.0064,0.0064,0.0065,0.0081,0.008,0.008,0,0,0,0,0,0,0,0,0,0,0,0,0,-0.0002,-0.0002,0.0016,0.0016,0.0016,0.0027,0.0027,0.0027,0.0062,0.0064,0.0065,0.0066,0.0081,0.008,0.008,0,0,0,0,0,0,0,0,0,0,0,0,0,0.0006,-0.0002,0.0016,0.0036,0.0039,0.0027,0.0027,0.0027,0.0062,0.0064,0.0065,0.0066,0.0081,0.008,0.008,0.0048,0,0,0.0078,0.0077,0,0,0,0,0,0,0,0,0.0005,0.0006,0.0033,0.0035,0.0037,0.0046,0.0027,0.0035,0.0062,0.0052,0.0065,0.0067,0.0069,0.007,0.0067,0.0048,0.0049,0.0078,0.0077,0.0077,0.0077,0,0,0,0,0,0,0,0.0005,0.0006,0.0019,0.0033,0.0036,0.0036,0.0039,0.0028,0.0051,0.0053,0.0056,0.0059,0.0071,0.0067,0.0067,0.0049,0.0078,0.0077,0.0077,0.0076,0.0064,0.0064,0,0,0,0,0,0,0.0006,0.0005,0.0018,0.0019,0.0026,0.0035,0.0038,0.0041,0.0052,0.0055,0.0058,0.006,0.0068,0.0068,0.0068,0.008,0.0077,0.0076,0.0076,0.0064,0.0064,0.0064,0,0,0,0,0,0,0.0006,0.0007,0.0018,0.0014,0.0016,0.0035,0.0037,0.004,0.0057,0.0056,0.0059,0.0074,0.0069,0.0069,0.0075,0.008,0.0076,0.0075,0.0064,0.0064,0.0064,0.0073,0,0,0,0,0,0,0.0005,0.0007,0.0015,0.0014,0.0016,0.0024,0.0036,0.004,0.0057,0.0061,0.007,0.0072,0.007,0.0076,0.0074,0.0079,0.0075,0.0064,0.0064,0.0064,0.0073,0.0074,0.0074,0,0,0,0,0,0.0004,0.0006,0.0015,0.0017,0.0024,0.0024,0.0025,0.0042,0.0056,0.0063,0.0071,0.0073,0.0076,0.0075,0.0073,0.0078,0.0064,0.0064,0.0064,0.0072,0.0073,0.0074,0,0,0,0,0,0,-0.0002,0.0009,0.002,0.0024,0.0032,0.0031,0.0038,0.0049,0.0059,0.0068,0.007,0.0072,0.0077,0.0075,0.0074,0.0075,0.0071,0.0071,0.0078,0.0079,0.008,0.0081,0.0074,0,0,0,0,0,0.0001,0.0008,0.0016,0.002,0.0025,0.0034,0.004,0.0051,0.0057,0.0064,0.007,0.0075,0.007,0.0076,0.007,0.0069,0.0063,0.0071,0.0072,0.0073,0.0073,0.0064,0.0064,0.0065,0.0065,0.0065,0,0,-0.0002,0.0006,0.0009,0.002,0.0026,0.0032,0.0041,0.0052,0.006,0.0062,0.0077,0.0075,0.007,0.007,0.0073,0.0074,0.007,0.0073,0.0074,0.0073,0.0065,0.0065,0.0064,0.0065,0.0065,0.0065,0,0,-0.0009,0.0004,0.001,0.0017,0.0033,0.0038,0.0046,0.0056,0.0068,0.0075,0.0078,0.0082,0.0081,0.0077,0.0074,0.0075,0.0071,0.0077,0.0086,0.0078,0.0078,0.0077,0.0073,0.0072,0.0082,0.0082,0.0082,0,-0.0008,-0.0,0.001,0.0018,0.0026,0.0043,0.0051,0.0057,0.0071,0.0076,0.0085,0.0082,0.0082,0.0076,0.008,0.0076,0.0073,0.0083,0.0079,0.0078,0.0078,0.0073,0.0072,0.0082,0.0082,0.0082,0.0082,0,-0.0013,0.0001,0.0003,0.0022,0.0029,0.0038,0.0051,0.0063,0.008,0.0085,0.0091,0.0087,0.0089,0.0087,0.0085,0.0082,0.0081,0.0077,0.0076,0.0078,0.0074,0.0072,0.0083,0.0083,0.0083,0.0083,0,0,-0.0029,-0.0002,0.0,0.0015,0.0036,0.0041,0.0053,0.0066,0.0079,0.0088,0.0097,0.0091,0.0097,0.0094,0.0091,0.0086,0.0083,0.0086,0.0085,0.0081,0.007,0.0075,0.0074,0.008,0.008,0.0079,0.0068,0,-0.003,-0.0011,-0.0,0.0018,0.003,0.0047,0.0057,0.0071,0.0084,0.0096,0.0093,0.0101,0.0097,0.0105,0.0097,0.0086,0.008,0.0087,0.0068,0.0067,0.0071,0.0073,0.0079,0.0067,0.0067,0.0067,0.0067,0,-0.0038,-0.002,-0.0002,0.0027,0.0033,0.0047,0.0071,0.0082,0.0097,0.0107,0.0112,0.0115,0.0111,0.0109,0.009,0.0096,0.0085,0.0074,0.0074,0.0074,0.007,0.0064,0.0065,0.0065,0.0065,0.0065,0.0065,0,-0.0054,-0.0024,-0.0005,0.0004,0.0036,0.0051,0.0071,0.009,0.0105,0.012,0.0134,0.0125,0.0131,0.0111,0.0089,0.0096,0.0061,0.0067,0.0058,0.0058,0.0053,0.0053,0.005,0.005,0.005,0.005,0.005,0,-0.0063,-0.005,-0.0004,0.0006,0.0033,0.0055,0.0083,0.0098,0.0124,0.0132,0.0146,0.0139,0.0134,0.0113,0.0089,0.0067,0.006,0.0059,0.0055,0.0058,0.0059,0.0052,0.0053,0.005,0.005,0.005,0.005,0,-0.0088,-0.006,-0.0037,0.0009,0.0027,0.0047,0.0099,0.0118,0.0144,0.0154,0.0162,0.0161,0.0134,0.0115,0.008,0.0075,0.0045,0.0035,0.0036,0.0032,0.0053,0.0054,0.0043,0.0044,0.0044,0.0044,0.0044,0,-0.0098,-0.0088,-0.0037,-0.0011,0.0015,0.0056,0.0085,0.0123,0.0137,0.0148,0.0143,0.0139,0.0126,0.0089,0.006,0.0031,0.0025,0.0028,0.0048,0.0054,0.0052,0.0053,0.0053,0.0044,0.0044,0.0044,0.0044,0,-0.012,-0.0101,-0.0078,-0.0024,0.0016,0.0056,0.0095,0.011,0.0135,0.0153,0.0141,0.0135,0.0106,0.008,0.0064,0.0032,0.004,0.0029,0.0029,0.0048,0.0055,0.0052,0.0053,0.0044,0.0044,0.0044,0.0044,0,-0.0134,-0.0123,-0.0085,-0.0038,0.0012,0.0054,0.0075,0.0102,0.0125,0.0141,0.0117,0.0101,0.0091,0.0077,0.0038,0.0034,0.0044,0.0062,0.006,0.006,0.0069,0.008,0.0074,0,0,0,0,0,-0.0144,-0.0129,-0.0094,-0.0037,0.0013,0.0043,0.0082,0.0099,0.0114,0.0112,0.0128,0.0095,0.0081,0.006,0.0058,0.0035,0.0034,0.0034,0.0051,0.0045,0.0045,0.0054,0,0,0,0,0,0,-0.0146,-0.0124,-0.0104,-0.0042,-0.0001,0.0051,0.0078,0.0086,0.0091,0.01,0.0086,0.01,0.0073,0.0075,0.0055,0.0052,0.0068,0.0025,0.0026,0.0045,0.0045,0.0045,0.0054,0,0,0,0,0]},{"header":{"parameterUnit":"m.s-1","parameterCategory":2,"la1":30.2991,"la2":30.254,"lo1":-89.0895,"lo2":-89.0444,"dy":0.0017,"dx":0.0017,"nx":28,"ny":28,"refTime":"2024-12-09T03:00:00:Z","depth":"4","parameterNumber":3,"parameterNumberName":"V-component_of_CURRENTS"},"data":[0,0,0,0,0,0,0,0,0,0,0,0,0,0,0,0,0,0,0,0,0,0,0,0,0,0,0,0,0,0,0,0,0,0,0,0,0,0,0,0,0,0,0,0,0,0,0,0,0,0,0,0,0,0,0,0,0,0,0.0112,0.0111,0,0.0071,0.0071,0.007,0.0039,0.0038,0.0038,0.0038,-0.0048,-0.005,-0.0052,0,0,0,0,0,0,0,0,0,0,0,0,0,0.0144,0.0144,0.0112,0.0111,0.0111,0.0071,0.0071,0.007,0.0039,0.0038,0.0038,0.0038,-0.0047,-0.005,-0.0052,0,0,0,0,0,0,0,0,0,0,0,0,0,0.0119,0.0144,0.0112,0.0091,0.0088,0.0071,0.0071,0.007,0.0039,0.0038,0.0038,0.0038,-0.0047,-0.005,-0.0053,-0.0064,0,0,-0.0062,-0.0064,0,0,0,0,0,0,0,0,0.012,0.0118,0.0094,0.0092,0.009,0.006,0.005,0.0023,0.0039,0.0057,0.0038,0.0037,-0.0016,-0.0021,-0.0028,-0.0068,-0.0072,-0.0062,-0.0064,-0.0066,-0.0067,0,0,0,0,0,0,0,0.0122,0.0119,0.0095,0.0094,0.0091,0.0077,0.0073,0.0045,0.0022,0.0055,0.0053,0.005,-0.0017,-0.0025,-0.0031,-0.0073,-0.0062,-0.0065,-0.0067,-0.0068,-0.0179,-0.018,0,0,0,0,0,0,0.013,0.0121,0.0096,0.0094,0.0105,0.0077,0.0073,0.0069,0.0023,0.0016,0.005,0.0048,-0.002,-0.0027,-0.0034,-0.0094,-0.0066,-0.0069,-0.007,-0.0178,-0.0179,-0.018,0,0,0,0,0,0,0.0131,0.0128,0.0098,0.0107,0.0102,0.0077,0.0074,0.0069,0.0042,0.002,0.0012,0.0026,-0.002,-0.0029,-0.0076,-0.0096,-0.007,-0.0073,-0.0176,-0.0178,-0.018,-0.0188,0,0,0,0,0,0,0.0132,0.0129,0.0118,0.0107,0.0102,0.0078,0.0074,0.0068,0.0042,0.0039,-0.0003,-0.001,-0.0021,-0.0072,-0.0079,-0.01,-0.0075,-0.0175,-0.0177,-0.0179,-0.0186,-0.0189,-0.0192,0,0,0,0,0,0.0133,0.0123,0.0118,0.0115,0.0092,0.0078,0.0073,0.0054,0.0041,0.0028,-0.0004,-0.001,-0.009,-0.0075,-0.0084,-0.0106,-0.0174,-0.0176,-0.0179,-0.0185,-0.0189,-0.0192,0,0,0,0,0,0,0.0124,0.0118,0.0113,0.0099,0.0086,0.0072,0.0054,0.0043,0.0008,-0.0005,-0.0025,-0.0035,-0.008,-0.0096,-0.0079,-0.0144,-0.0133,-0.0137,-0.0134,-0.0138,-0.0141,-0.0132,-0.0078,0,0,0,0,0,0.0121,0.0112,0.0105,0.0089,0.0082,0.0064,0.0051,0.0038,0.0013,-0.0004,-0.0033,-0.0067,-0.0094,-0.0118,-0.0144,-0.0185,-0.0181,-0.0205,-0.0208,-0.021,-0.021,-0.022,-0.0223,-0.0188,-0.0188,-0.0188,0,0,0.0113,0.0107,0.0101,0.0087,0.0072,0.0059,0.0054,0.0028,0.0009,-0.0009,-0.0057,-0.008,-0.0107,-0.0147,-0.0169,-0.0166,-0.0218,-0.0213,-0.0215,-0.0213,-0.0223,-0.0226,-0.0229,-0.019,-0.0189,-0.0189,0,0,0.0097,0.0087,0.0077,0.0066,0.0045,0.0037,0.0027,0.0001,-0.002,-0.0062,-0.0077,-0.0112,-0.0164,-0.018,-0.0195,-0.0234,-0.023,-0.0248,-0.0262,-0.0272,-0.0275,-0.0277,-0.0269,-0.027,-0.0254,-0.0254,-0.0254,0,0.0086,0.0076,0.0069,0.0057,0.0045,0.0027,0.0011,-0.0011,-0.0051,-0.0071,-0.0083,-0.0153,-0.0176,-0.0213,-0.0226,-0.024,-0.0239,-0.0243,-0.0275,-0.0277,-0.0279,-0.027,-0.0271,-0.0255,-0.0255,-0.0255,-0.0254,0,0.0071,0.0056,0.0046,0.003,0.0015,-0.0004,-0.0024,-0.0053,-0.0082,-0.0102,-0.0153,-0.0185,-0.0223,-0.0239,-0.0246,-0.0277,-0.0268,-0.0271,-0.026,-0.0282,-0.0272,-0.0273,-0.0256,-0.0255,-0.0255,-0.0255,0,0,0.0059,0.0041,0.0035,0.0026,-0.0001,-0.0012,-0.0046,-0.0075,-0.01,-0.0146,-0.0179,-0.0228,-0.0245,-0.0263,-0.028,-0.0294,-0.0305,-0.0292,-0.0292,-0.0274,-0.0315,-0.0292,-0.0291,-0.0313,-0.0314,-0.0314,-0.0298,0,0.0046,0.0029,0.002,-0.0007,-0.0018,-0.004,-0.0065,-0.0097,-0.013,-0.0168,-0.0204,-0.0242,-0.0255,-0.0275,-0.0293,-0.0304,-0.0311,-0.0308,-0.0305,-0.0304,-0.0273,-0.0292,-0.0316,-0.0299,-0.03,-0.03,-0.03,0,0.0032,0.0025,0.0005,-0.0019,-0.0027,-0.0047,-0.0085,-0.0111,-0.0158,-0.0185,-0.0226,-0.0252,-0.0288,-0.0292,-0.0319,-0.0318,-0.0317,-0.032,-0.032,-0.0296,-0.0284,-0.0276,-0.0302,-0.0302,-0.0302,-0.0302,-0.0301,0,0.0033,0.0009,-0.0003,-0.0012,-0.0039,-0.0059,-0.008,-0.0122,-0.0141,-0.0194,-0.0212,-0.0261,-0.0283,-0.0301,-0.0307,-0.0319,-0.0319,-0.0334,-0.0308,-0.0306,-0.0325,-0.0323,-0.0343,-0.0343,-0.0343,-0.0343,-0.0343,0,0.0023,0.0008,-0.0005,-0.0013,-0.0033,-0.0058,-0.0089,-0.0116,-0.0154,-0.0176,-0.022,-0.0242,-0.0286,-0.0293,-0.0304,-0.0302,-0.0314,-0.031,-0.0305,-0.0329,-0.0328,-0.0325,-0.0324,-0.0342,-0.0343,-0.0343,-0.0343,0,0.0016,0.0009,-0.0004,-0.0025,-0.0033,-0.0051,-0.0081,-0.0101,-0.0136,-0.0164,-0.0179,-0.0224,-0.0244,-0.0261,-0.0282,-0.0288,-0.0291,-0.028,-0.0285,-0.028,-0.0275,-0.0274,-0.0273,-0.0272,-0.0271,-0.0271,-0.027,0,0.0008,0.0003,-0.0005,-0.0008,-0.0022,-0.0044,-0.006,-0.0093,-0.011,-0.0152,-0.0163,-0.019,-0.0219,-0.0224,-0.0248,-0.0255,-0.0255,-0.025,-0.029,-0.0275,-0.027,-0.027,-0.027,-0.0269,-0.0269,-0.0269,-0.0269,0,-0.0003,-0.0003,-0.0007,-0.0007,-0.0019,-0.0034,-0.0059,-0.0068,-0.0108,-0.0119,-0.0154,-0.0179,-0.0194,-0.0223,-0.0212,-0.0222,-0.0259,-0.0243,-0.0246,-0.0284,-0.027,-0.0266,-0.0267,-0.0266,-0.0266,-0.0267,-0.0267,0,-0.0009,-0.0011,-0.0009,-0.0014,-0.0016,-0.0038,-0.0052,-0.0076,-0.0095,-0.0134,-0.0139,-0.0171,-0.019,-0.0203,-0.0198,-0.0201,-0.0223,-0.0233,-0.0237,-0.024,-0.0239,-0.0217,-0.0193,0,0,0,0,0,-0.0014,-0.0016,-0.0018,-0.0032,-0.0032,-0.0035,-0.0056,-0.007,-0.0091,-0.0111,-0.0129,-0.0145,-0.017,-0.0185,-0.0186,-0.0194,-0.0221,-0.0196,-0.0235,-0.0252,-0.0255,-0.0258,0,0,0,0,0,0,-0.0017,-0.0016,-0.002,-0.0042,-0.0047,-0.0063,-0.0071,-0.009,-0.0104,-0.0119,-0.013,-0.0136,-0.0156,-0.0162,-0.0182,-0.0185,-0.0209,-0.0205,-0.0205,-0.0251,-0.0253,-0.0255,-0.0259,0,0,0,0,0]}]]